Flag for Turkey Weather past 2 weeks in Istanbul, Turkey

Now
70 °F

Passing clouds.


Feels Like: 70 °F
Forecast: 67 / 77 °F
Wind: 9 mph from North

Location: Istanbul Ataturk Airport

Current Time: Jul 4, 2015 at 1:30:59 AM

Latest Report: Jul 4, 2015 at 12:50 AM


Visibility: N/A

Pressure: 30.12 "Hg

Humidity: 69%

Dew point: 59 °F

Location of IstanbulLocation

Historic Weather in Istanbul — Graph

°F

Istanbul temperature yesterday

Maximum temperature yesterday: 81 °F (at 2:20 PM)
Minimum temperature yesterday: 70 °F (at 4:20 AM)
Average temperature yesterday: 75 °F

Past Weeks' High & Low Weather Summary

 TemperatureHumidityPressure
High84 °F (Jun 21, 3:50 PM)94% (Jun 20, 4:50 AM)30.15 "Hg (Jun 20, 4:50 AM)
Low61 °F (Jun 20, 4:50 AM)23% (Jul 1, 2:20 PM)29.68 "Hg (Jun 18, 11:20 PM)
Average72 °F62%29.94 "Hg
* Reported Jun 18 11:20 PM — Jul 3 11:50 PM, Istanbul, Weather by CustomWeather, © 2015

Note: Actual official high and low records may vary slightly from our data, if they occured in-between our weather recording intervals... More about our weather records

Advertising

Istanbul weather history for previous 24 hours

 ConditionsComfort  
Time TempWeatherWind HumidityBarometerVisibility
11:50 PM
Fri, Jul 3
70 °FPassing clouds.10 mph69%30.15 "HgN/A
11:20 PM72 °FPassing clouds.9 mph65%30.15 "HgN/A
10:50 PM70 °FPassing clouds.9 mph69%30.15 "HgN/A
10:20 PM72 °FPassing clouds.9 mph65%30.15 "HgN/A
9:50 PM72 °FPassing clouds.13 mph65%30.15 "HgN/A
9:20 PM73 °FPassing clouds.10 mph57%30.15 "HgN/A
8:50 PM73 °FPassing clouds.13 mph57%30.15 "HgN/A
8:20 PM73 °FPassing clouds.14 mph53%30.15 "HgN/A
7:50 PM75 °FPassing clouds.9 mph50%30.15 "HgN/A
7:20 PM77 °FPassing clouds.12 mph47%30.15 "HgN/A
6:50 PM77 °FPassing clouds.13 mph47%30.15 "HgN/A
6:20 PM77 °FPassing clouds.15 mph47%30.12 "HgN/A
5:50 PM77 °FPassing clouds.14 mph44%30.12 "HgN/A
5:20 PM79 °FPassing clouds.14 mph42%30.12 "HgN/A
4:50 PM79 °FScattered clouds.14 mph42%30.12 "HgN/A
4:20 PM79 °FScattered clouds.14 mph42%30.15 "HgN/A
3:50 PM81 °FScattered clouds.14 mph42%30.15 "HgN/A
3:20 PM81 °FScattered clouds.15 mph42%30.15 "HgN/A
2:50 PM81 °FScattered clouds.17 mph42%30.15 "HgN/A
2:20 PM81 °FScattered clouds.15 mph39%30.15 "HgN/A
1:50 PM79 °FScattered clouds.17 mph45%30.15 "HgN/A
1:20 PM79 °FScattered clouds.16 mph45%30.15 "HgN/A
12:50 PM79 °FScattered clouds.16 mph42%30.12 "HgN/A
12:20 PM79 °FScattered clouds.14 mph45%30.12 "HgN/A
11:50 AM79 °FScattered clouds.14 mph48%30.12 "HgN/A
11:20 AM79 °FScattered clouds.14 mph45%30.12 "HgN/A
10:50 AM79 °FScattered clouds.15 mph45%30.12 "HgN/A
10:20 AM79 °FScattered clouds.12 mph45%30.12 "HgN/A
9:50 AM77 °FScattered clouds.12 mph51%30.12 "HgN/A
9:20 AM77 °FScattered clouds.6 mph65%30.12 "HgN/A
8:50 AM73 °FPartly sunny.3 mph74%30.12 "HgN/A
8:20 AM75 °FScattered clouds.5 mph65%30.12 "HgN/A
7:50 AM73 °FScattered clouds.3 mph69%30.12 "HgN/A
7:20 AM73 °FScattered clouds.5 mph74%30.12 "HgN/A
6:50 AM72 °FScattered clouds.5 mph73%30.12 "HgN/A
6:20 AM72 °FPassing clouds.5 mph73%30.12 "HgN/A
5:50 AM72 °FPassing clouds.5 mph73%30.12 "HgN/A
5:20 AM72 °FPassing clouds.5 mph73%30.12 "HgN/A
4:50 AM72 °FClear.5 mph73%30.12 "Hg10 mi
4:20 AM70 °FPassing clouds.6 mph78%30.12 "HgN/A
3:50 AM72 °FPassing clouds.7 mph73%30.12 "HgN/A
3:20 AM72 °FPassing clouds.6 mph73%30.12 "HgN/A
2:50 AM72 °FPassing clouds.6 mph73%30.12 "HgN/A
2:20 AM72 °FPassing clouds.5 mph73%30.12 "HgN/A
1:50 AM73 °FClear.7 mph69%30.12 "Hg10 mi
Weather by CustomWeather, © 2015

See weather overviewHow to use our weather pages